Location: *
(29.1167°S, 130.0000°E)
Time: 04:42:39
(UTC+00:00)

Atlas Centaur 2 - Pass Details

Date: 21 July 2019
Orbit: 459 x 1311 km, 30.4° (Epoch: 19 August)

Event Time Altitude Azimuth Distance (km) Brightness Sun altitude
Rises 10:05:58 0° 259° (W) 3,368 6.5 -18.1°
Reaches altitude 10° 10:08:16 10° 261° (W) 2,554 5.7 -18.6°
Maximum altitude 10:14:32 70° 343° (NNW) 1,106 2.8 -19.9°
Enters shadow 10:19:25 24° 61° (ENE) 2,189 3.9 -21.0°
